Back to catalog

GALILEO 17

26D

AliveNavigationMEO
NORAD 41861·PAYLOAD·🇪🇺 EU

Launched Nov 17, 2016 from Guiana Space Centre

Loading…

Next Passes (next 24 hours)

TLE

FreshSource: CelesTrak SupGP

Epoch: Sep 13, 2026, 23:59 UTC

1 41861C 16069C   26256.99979167  .00000000  00000+0  00000+0 0  2564
2 41861  55.5552  98.6297 0001936 329.2542 312.7266  1.70474625    10

Track GALILEO 17 in real time with AllMySat

Download on the App Store